[[{"header":{"parameterUnit":"m.s-1","parameterCategory":1,"la1":30.2991,"la2":30.254,"lo1":-89.0895,"lo2":-89.0444,"dy":0.0017,"dx":0.0017,"nx":28,"ny":28,"refTime":"2024-08-20T03:00:00:Z","depth":0,"parameterNumber":2,"parameterNumberName":"U-component_of_WINDS"},"data":[0,0,0,0,0,0,0,0,0,0,0,0,0,0,0,0,0,0,0,0,0,0,0,0,0,0,0,0,0,0,0,0,0,0,0,0,0,0,0,0,0,0,0,0,0,0,0,0,0,0,0,0,0,0,0,0,0,0,-0.4069,-0.4069,0,-0.4106,-0.4107,-0.4107,-0.4065,-0.4063,-0.4062,-0.406,-0.4098,-0.4101,-0.4103,0,0,0,0,0,0,0,0,0,0,0,0,0,-0.3958,-0.3961,-0.4069,-0.4069,-0.4069,-0.4106,-0.4107,-0.4107,-0.4065,-0.4063,-0.4061,-0.4059,-0.4098,-0.4101,-0.4104,0,0,0,0,0,0,0,0,0,0,0,0,0,-0.4002,-0.3961,-0.4068,-0.4053,-0.4052,-0.4106,-0.4107,-0.4107,-0.4066,-0.4063,-0.4061,-0.4059,-0.4097,-0.41,-0.4104,-0.4175,0,0,-0.4116,-0.4117,0,0,0,0,0,0,0,0,-0.4,-0.4006,-0.4055,-0.4054,-0.4053,-0.4078,-0.4082,-0.413,-0.4066,-0.406,-0.406,-0.4057,-0.4094,-0.4098,-0.411,-0.4177,-0.4179,-0.4116,-0.4118,-0.412,-0.4121,0,0,0,0,0,0,0,-0.3997,-0.4004,-0.4083,-0.4055,-0.4054,-0.4044,-0.4047,-0.4091,-0.409,-0.4061,-0.4058,-0.4063,-0.4093,-0.4106,-0.4111,-0.4179,-0.4116,-0.4119,-0.4121,-0.4123,-0.4306,-0.4308,0,0,0,0,0,0,-0.3996,-0.4002,-0.4082,-0.4085,-0.402,-0.4047,-0.4051,-0.4073,-0.4089,-0.409,-0.4065,-0.4061,-0.4101,-0.4106,-0.4112,-0.4196,-0.412,-0.4123,-0.4125,-0.4303,-0.4306,-0.4309,0,0,0,0,0,0,-0.3993,-0.4003,-0.4081,-0.4043,-0.4052,-0.4052,-0.4076,-0.4075,-0.4088,-0.4093,-0.4092,-0.4079,-0.4099,-0.4106,-0.416,-0.4196,-0.4125,-0.4128,-0.43,-0.4304,-0.4308,-0.4365,0,0,0,0,0,0,-0.399,-0.4003,-0.403,-0.4044,-0.4054,-0.4129,-0.4078,-0.4077,-0.4095,-0.409,-0.4106,-0.4106,-0.4098,-0.4154,-0.4163,-0.42,-0.4131,-0.4297,-0.4302,-0.4306,-0.4359,-0.437,-0.4379,0,0,0,0,0,-0.3987,-0.4045,-0.4032,-0.4042,-0.4088,-0.4131,-0.4137,-0.4127,-0.4098,-0.4125,-0.4128,-0.4106,-0.4191,-0.416,-0.417,-0.4209,-0.4294,-0.43,-0.4306,-0.4355,-0.4368,-0.4379,0,0,0,0,0,0,-0.4036,-0.4046,-0.4032,-0.4096,-0.4113,-0.4124,-0.4158,-0.4141,-0.4166,-0.416,-0.4146,-0.415,-0.4206,-0.4213,-0.4178,-0.4278,-0.4238,-0.4246,-0.4272,-0.4284,-0.4293,-0.4291,-0.4135,0,0,0,0,0,-0.4055,-0.4089,-0.4096,-0.4152,-0.4161,-0.4158,-0.4176,-0.4167,-0.4183,-0.419,-0.4197,-0.4213,-0.4244,-0.4264,-0.4292,-0.436,-0.4362,-0.4391,-0.4401,-0.4409,-0.4416,-0.4451,-0.4464,-0.4328,-0.4328,-0.4328,0,0,-0.4093,-0.4103,-0.4125,-0.4162,-0.4174,-0.4208,-0.4164,-0.4203,-0.4229,-0.4196,-0.4247,-0.4252,-0.4269,-0.433,-0.4357,-0.4337,-0.4454,-0.4416,-0.4423,-0.4426,-0.4458,-0.4471,-0.4483,-0.4332,-0.4331,-0.4331,0,0,-0.4181,-0.4192,-0.4239,-0.4252,-0.427,-0.4268,-0.4279,-0.4292,-0.4294,-0.4345,-0.432,-0.435,-0.4403,-0.4417,-0.443,-0.4522,-0.4502,-0.4531,-0.4582,-0.4616,-0.4627,-0.4637,-0.4668,-0.468,-0.4538,-0.4539,-0.4539,0,-0.4226,-0.4278,-0.4266,-0.4307,-0.4323,-0.4294,-0.4342,-0.4355,-0.4381,-0.4393,-0.437,-0.4435,-0.4445,-0.4508,-0.453,-0.4542,-0.4554,-0.4529,-0.4627,-0.4636,-0.4644,-0.4675,-0.4687,-0.4542,-0.4542,-0.4541,-0.4541,0,-0.4332,-0.4369,-0.4405,-0.4431,-0.4452,-0.4496,-0.4489,-0.4511,-0.45,-0.45,-0.4551,-0.4561,-0.4591,-0.4605,-0.4595,-0.4666,-0.4653,-0.4629,-0.4588,-0.4661,-0.4689,-0.4701,-0.4547,-0.4546,-0.4545,-0.4544,0,0,-0.4453,-0.4471,-0.4485,-0.4496,-0.4513,-0.4541,-0.4583,-0.4612,-0.463,-0.4649,-0.4684,-0.4729,-0.4706,-0.4722,-0.4712,-0.4742,-0.4813,-0.4714,-0.4714,-0.4732,-0.4891,-0.4909,-0.4922,-0.48,-0.4802,-0.4803,-0.4889,0,-0.4541,-0.4614,-0.4604,-0.4674,-0.4707,-0.4679,-0.4716,-0.473,-0.4731,-0.4758,-0.4759,-0.4791,-0.4759,-0.4768,-0.4797,-0.4798,-0.4845,-0.4792,-0.4831,-0.4832,-0.4827,-0.4937,-0.4956,-0.5037,-0.49,-0.4902,-0.4903,0,-0.4653,-0.4675,-0.4749,-0.476,-0.4774,-0.4807,-0.4831,-0.4858,-0.4874,-0.4872,-0.4889,-0.4873,-0.4915,-0.4874,-0.493,-0.4894,-0.4909,-0.4912,-0.4915,-0.4918,-0.4872,-0.4942,-0.5062,-0.5074,-0.4921,-0.4919,-0.4918,0,-0.4732,-0.4781,-0.4831,-0.4842,-0.4856,-0.488,-0.4887,-0.49,-0.4918,-0.4939,-0.495,-0.4976,-0.4991,-0.5011,-0.5003,-0.4974,-0.506,-0.5018,-0.5059,-0.5059,-0.5078,-0.5077,-0.5202,-0.5089,-0.5089,-0.5089,-0.5088,0,-0.4831,-0.4877,-0.4867,-0.4898,-0.4948,-0.4935,-0.4985,-0.4989,-0.5,-0.5031,-0.5009,-0.5038,-0.5025,-0.5053,-0.5047,-0.5094,-0.5101,-0.51,-0.5097,-0.5101,-0.5101,-0.5111,-0.5105,-0.5092,-0.5091,-0.5091,-0.509,0,-0.4929,-0.4924,-0.4977,-0.4986,-0.4989,-0.5026,-0.5033,-0.5062,-0.506,-0.5099,-0.5107,-0.5105,-0.5136,-0.513,-0.5165,-0.5161,-0.5219,-0.521,-0.5214,-0.5212,-0.5252,-0.5248,-0.5386,-0.5403,-0.5281,-0.5282,-0.5283,0,-0.4992,-0.5026,-0.5039,-0.5058,-0.5066,-0.5097,-0.5115,-0.5103,-0.5122,-0.5141,-0.5167,-0.5197,-0.522,-0.5271,-0.5272,-0.5298,-0.5289,-0.5336,-0.5293,-0.5296,-0.5289,-0.5287,-0.529,-0.5345,-0.5346,-0.5347,-0.5348,0,-0.5103,-0.5099,-0.5126,-0.5151,-0.5172,-0.5192,-0.5209,-0.5226,-0.5215,-0.5238,-0.527,-0.5287,-0.5322,-0.5352,-0.5376,-0.5382,-0.5363,-0.5362,-0.5372,-0.5376,-0.5376,-0.5376,-0.5236,-0.5358,-0.5357,-0.5357,-0.5356,-0.5356,-0.5185,-0.5214,-0.5227,-0.5257,-0.5268,-0.5285,-0.5311,-0.5313,-0.534,-0.5367,-0.5359,-0.5395,-0.5408,-0.5438,-0.5447,-0.5475,-0.5457,-0.5473,-0.5477,-0.548,-0.5485,-0.5373,-0.5479,-0.5479,-0.5479,-0.5478,-0.5478,0,-0.5295,-0.5302,-0.5329,-0.5354,-0.5377,-0.5357,-0.5375,-0.5395,-0.5427,-0.5441,-0.5464,-0.55,-0.5528,-0.5531,-0.5557,-0.5578,-0.557,-0.5585,-0.5583,-0.5585,-0.55,-0.5487,-0.5591,-0.5591,-0.5591,-0.5591,-0.5591,-0.5591,-0.5355,-0.5402,-0.5399,-0.5452,-0.5458,-0.5493,-0.5505,-0.552,-0.553,-0.5572,-0.5595,-0.5596,-0.5606,-0.5632,-0.5656,-0.5656,-0.5666,-0.5685,-0.5682,-0.5602,-0.5591,-0.558,-0.5568,-0.5688,-0.5688,-0.5764,-0.5765,-0.5765]},{"header":{"parameterUnit":"m.s-1","parameterCategory":1,"la1":30.2991,"la2":30.254,"lo1":-89.0895,"lo2":-89.0444,"dy":0.0017,"dx":0.0017,"nx":28,"ny":28,"refTime":"2024-08-20T03:00:00:Z","depth":0,"parameterNumber":3,"parameterNumberName":"V-component_of_WINDS"},"data":[0,0,0,0,0,0,0,0,0,0,0,0,0,0,0,0,0,0,0,0,0,0,0,0,0,0,0,0,0,0,0,0,0,0,0,0,0,0,0,0,0,0,0,0,0,0,0,0,0,0,0,0,0,0,0,0,0,0,-3.0732,-3.0733,0,-3.0804,-3.0804,-3.0805,-3.0777,-3.0776,-3.0774,-3.0773,-3.0841,-3.0845,-3.0848,0,0,0,0,0,0,0,0,0,0,0,0,0,-3.0565,-3.0568,-3.0732,-3.0733,-3.0734,-3.0804,-3.0804,-3.0805,-3.0778,-3.0776,-3.0774,-3.0772,-3.084,-3.0844,-3.0848,0,0,0,0,0,0,0,0,0,0,0,0,0,-3.0637,-3.0569,-3.0732,-3.0728,-3.0729,-3.0803,-3.0805,-3.0806,-3.0778,-3.0776,-3.0773,-3.0771,-3.0839,-3.0844,-3.0849,-3.093,0,0,-3.0864,-3.0867,0,0,0,0,0,0,0,0,-3.0633,-3.0643,-3.0728,-3.0729,-3.0729,-3.0779,-3.0771,-3.0847,-3.0779,-3.0759,-3.0772,-3.077,-3.0822,-3.0829,-3.0847,-3.0933,-3.0936,-3.0865,-3.0868,-3.087,-3.0871,0,0,0,0,0,0,0,-3.0628,-3.064,-3.076,-3.0729,-3.073,-3.0721,-3.0729,-3.0785,-3.0804,-3.0761,-3.0759,-3.0768,-3.0822,-3.0843,-3.0849,-3.0937,-3.0865,-3.0869,-3.0872,-3.0874,-3.109,-3.1093,0,0,0,0,0,0,-3.0623,-3.0636,-3.0758,-3.0762,-3.0674,-3.0726,-3.0735,-3.0765,-3.0803,-3.0806,-3.077,-3.0766,-3.0835,-3.0843,-3.0851,-3.0947,-3.087,-3.0875,-3.0878,-3.1087,-3.1091,-3.1094,0,0,0,0,0,0,-3.062,-3.0634,-3.0755,-3.0699,-3.0713,-3.0732,-3.0767,-3.0768,-3.0789,-3.081,-3.0813,-3.0788,-3.0834,-3.0844,-3.091,-3.0949,-3.0877,-3.0882,-3.1084,-3.1088,-3.1092,-3.114,0,0,0,0,0,0,-3.0615,-3.0633,-3.0666,-3.07,-3.0716,-3.0815,-3.0769,-3.0771,-3.0798,-3.0794,-3.0828,-3.0831,-3.0832,-3.0903,-3.0915,-3.0955,-3.0886,-3.1081,-3.1086,-3.1091,-3.1135,-3.1145,-3.1154,0,0,0,0,0,-3.0609,-3.0676,-3.0668,-3.0682,-3.0757,-3.0817,-3.0826,-3.0828,-3.0801,-3.0833,-3.0846,-3.083,-3.0943,-3.091,-3.0924,-3.0965,-3.1078,-3.1085,-3.109,-3.1131,-3.1143,-3.1154,0,0,0,0,0,0,-3.0645,-3.068,-3.0671,-3.0751,-3.0782,-3.0812,-3.0852,-3.0842,-3.0879,-3.0874,-3.0873,-3.0881,-3.0949,-3.0964,-3.0926,-3.1044,-3.1006,-3.1015,-3.1032,-3.1044,-3.1054,-3.1048,-3.089,0,0,0,0,0,-3.0662,-3.0709,-3.0737,-3.0804,-3.082,-3.0834,-3.086,-3.0859,-3.0889,-3.0901,-3.092,-3.0949,-3.0991,-3.1018,-3.1058,-3.1137,-3.1143,-3.1172,-3.1182,-3.1189,-3.1197,-3.1238,-3.1251,-3.1113,-3.1113,-3.1113,0,0,-3.0698,-3.0723,-3.0753,-3.0812,-3.0836,-3.0882,-3.0845,-3.0896,-3.093,-3.0909,-3.0973,-3.0987,-3.1019,-3.1092,-3.1125,-3.1106,-3.1236,-3.1197,-3.1203,-3.1207,-3.1245,-3.1258,-3.127,-3.1118,-3.1117,-3.1116,0,0,-3.0787,-3.0812,-3.087,-3.0894,-3.093,-3.0939,-3.0953,-3.0985,-3.0994,-3.1059,-3.1043,-3.1082,-3.1155,-3.1178,-3.12,-3.1296,-3.1281,-3.1309,-3.1358,-3.1398,-3.1409,-3.1418,-3.1451,-3.1463,-3.1317,-3.1317,-3.1317,0,-3.0826,-3.0898,-3.0901,-3.0954,-3.0979,-3.0963,-3.1021,-3.1044,-3.1091,-3.1108,-3.1087,-3.1177,-3.1198,-3.1274,-3.1298,-3.1316,-3.133,-3.1305,-3.1408,-3.1417,-3.1426,-3.1457,-3.147,-3.132,-3.132,-3.1319,-3.1319,0,-3.0944,-3.0994,-3.1037,-3.1084,-3.1114,-3.1169,-3.1178,-3.1208,-3.1204,-3.1214,-3.1279,-3.1303,-3.1346,-3.1365,-3.1361,-3.1441,-3.1428,-3.1407,-3.1369,-3.1442,-3.1471,-3.1484,-3.1324,-3.1323,-3.1322,-3.1322,0,0,-3.1058,-3.1106,-3.1121,-3.1141,-3.118,-3.1217,-3.127,-3.1315,-3.134,-3.1372,-3.1415,-3.1477,-3.1458,-3.1482,-3.148,-3.1516,-3.1589,-3.149,-3.1491,-3.1507,-3.1676,-3.169,-3.1705,-3.1579,-3.1582,-3.1583,-3.1673,0,-3.115,-3.1245,-3.1248,-3.1335,-3.138,-3.1364,-3.141,-3.1437,-3.1448,-3.1486,-3.1496,-3.154,-3.1512,-3.1526,-3.156,-3.1573,-3.1622,-3.1566,-3.1618,-3.1619,-3.1609,-3.172,-3.1736,-3.1819,-3.1684,-3.1686,-3.1688,0,-3.1269,-3.1307,-3.1398,-3.1428,-3.1447,-3.1489,-3.1529,-3.1566,-3.1596,-3.16,-3.1627,-3.162,-3.1672,-3.1632,-3.1703,-3.1665,-3.1686,-3.1695,-3.1698,-3.1702,-3.1657,-3.1726,-3.1846,-3.1858,-3.1706,-3.1705,-3.1703,0,-3.1342,-3.1414,-3.1478,-3.1496,-3.1534,-3.1563,-3.158,-3.1607,-3.1633,-3.1667,-3.1683,-3.1723,-3.1744,-3.1774,-3.1776,-3.1748,-3.1847,-3.1808,-3.185,-3.185,-3.1872,-3.187,-3.1995,-3.1887,-3.1887,-3.1887,-3.1886,0,-3.1443,-3.1499,-3.1511,-3.155,-3.1612,-3.1614,-3.1674,-3.1688,-3.1712,-3.1752,-3.1741,-3.1778,-3.178,-3.1817,-3.182,-3.1877,-3.1887,-3.189,-3.189,-3.1891,-3.189,-3.1904,-3.1898,-3.189,-3.1889,-3.1889,-3.1888,0,-3.1534,-3.1545,-3.1613,-3.1643,-3.1652,-3.1696,-3.172,-3.1756,-3.1765,-3.1816,-3.1827,-3.1841,-3.1884,-3.189,-3.1941,-3.1942,-3.2011,-3.2005,-3.2001,-3.2,-3.2042,-3.2037,-3.2179,-3.2197,-3.2078,-3.208,-3.208,0,-3.1598,-3.1641,-3.1675,-3.1702,-3.172,-3.1763,-3.179,-3.1793,-3.182,-3.1857,-3.1888,-3.193,-3.1965,-3.2034,-3.2047,-3.2086,-3.208,-3.2127,-3.2085,-3.2084,-3.2079,-3.2076,-3.2079,-3.2135,-3.2136,-3.2137,-3.2138,0,-3.1709,-3.1712,-3.1751,-3.1793,-3.1825,-3.1857,-3.1887,-3.1909,-3.1915,-3.1946,-3.1991,-3.2018,-3.207,-3.2111,-3.2149,-3.2163,-3.2151,-3.2151,-3.2163,-3.2163,-3.2159,-3.216,-3.2022,-3.2148,-3.2147,-3.2146,-3.2145,-3.2145,-3.1787,-3.1824,-3.1854,-3.1898,-3.1921,-3.1949,-3.1984,-3.1998,-3.2036,-3.2079,-3.2078,-3.2127,-3.2153,-3.2203,-3.222,-3.2257,-3.2241,-3.2259,-3.2263,-3.2266,-3.227,-3.2154,-3.2264,-3.2264,-3.2263,-3.2263,-3.2263,0,-3.1897,-3.1915,-3.1956,-3.1999,-3.2032,-3.202,-3.2052,-3.208,-3.2124,-3.2151,-3.2185,-3.2235,-3.2275,-3.2291,-3.233,-3.2356,-3.2351,-3.2366,-3.2363,-3.2367,-3.2283,-3.2268,-3.2369,-3.2369,-3.2369,-3.2369,-3.2369,-3.2369,-3.1958,-3.2019,-3.2025,-3.2097,-3.2114,-3.2163,-3.2182,-3.2207,-3.2229,-3.2286,-3.232,-3.233,-3.2352,-3.2392,-3.2427,-3.2431,-3.2445,-3.2462,-3.2463,-3.2384,-3.2373,-3.2363,-3.2349,-3.2465,-3.2465,-3.2543,-3.2544,-3.2545]}]]